TNO5555 SBBE-SBRP

Flight info

Callsign TNO5555
Flight time 2h 45m
Altitude 37000
Route LEMIS UZ26 ILKUS/N0445F380 UZ38 GEKON UZ5 UDIGI UZ31 ETEGO
Aircraft A20N/M-SDE2E3FGHIRWXY/LB1

Departure

Time 2026-04-24 22:25
Airport Val de Cans/Júlio Cezar Ribeiro International Airport (SBBE)

Arrival

Time 2026-04-25 01:10
Airport Leite Lopes Airport (SBRP)
Time Latitude Longitude Altitude Speed Heading
2026-04-24 22:19 -1.38482 -48.47522 56 ft 0 kts 328°
2026-04-24 22:20 -1.38416 -48.47534 56 ft 15 kts 357°
2026-04-24 22:20 -1.38395 -48.47549 52 ft 8 kts 283°
2026-04-24 22:20 -1.38388 -48.47618 51 ft 10 kts 275°
2026-04-24 22:21 -1.38371 -48.47666 54 ft 2 kts 336°
2026-04-24 22:21 -1.38303 -48.47649 55 ft 24 kts 12°
2026-04-24 22:21 -1.38138 -48.47632 54 ft 24 kts
2026-04-24 22:21 -1.37973 -48.47625 50 ft 24 kts
2026-04-24 22:22 -1.37866 -48.47548 51 ft 18 kts 50°
2026-04-24 22:22 -1.37784 -48.47467 52 ft 15 kts 43°
2026-04-24 22:22 -1.37683 -48.47368 50 ft 21 kts 48°
2026-04-24 22:22 -1.37592 -48.47268 55 ft 18 kts 47°
2026-04-24 22:23 -1.37512 -48.47186 56 ft 16 kts 45°
2026-04-24 22:23 -1.37395 -48.47071 58 ft 24 kts 44°
2026-04-24 22:23 -1.37275 -48.46973 60 ft 21 kts 39°
2026-04-24 22:23 -1.37197 -48.46910 57 ft 5 kts 88°
2026-04-24 22:24 -1.37208 -48.46906 59 ft 3 kts 184°
2026-04-24 22:24 -1.37226 -48.46927 53 ft 19 kts 227°
2026-04-24 22:24 -1.37478 -48.47171 55 ft 82 kts 224°
2026-04-24 22:24 -1.38041 -48.47719 52 ft 144 kts 224°
2026-04-24 22:25 -1.38847 -48.48501 352 ft 165 kts 223°
2026-04-24 22:25 -1.39710 -48.49356 762 ft 184 kts 226°
2026-04-24 22:25 -1.40628 -48.50277 1321 ft 193 kts 220°
2026-04-24 22:25 -1.41923 -48.50775 1560 ft 214 kts 183°
2026-04-24 22:26 -1.43465 -48.50763 1779 ft 235 kts 174°
2026-04-24 22:26 -1.45154 -48.50511 2023 ft 256 kts 169°
2026-04-24 22:26 -1.46948 -48.50174 2454 ft 267 kts 169°
2026-04-24 22:26 -1.48793 -48.49889 3046 ft 270 kts 172°
2026-04-24 22:27 -1.50668 -48.49692 3674 ft 272 kts 174°
2026-04-24 22:27 -1.52569 -48.49572 4262 ft 275 kts 176°
2026-04-24 22:27 -1.54488 -48.49504 4874 ft 277 kts 177°
2026-04-24 22:27 -1.56421 -48.49465 5460 ft 279 kts 178°
2026-04-24 22:28 -1.58371 -48.49437 6041 ft 281 kts 178°
2026-04-24 22:28 -1.60337 -48.49411 6597 ft 284 kts 178°
2026-04-24 22:28 -1.62294 -48.49383 7144 ft 286 kts 178°
2026-04-24 22:28 -1.64291 -48.49350 7718 ft 288 kts 177°
2026-04-24 22:29 -1.68326 -48.49276 8850 ft 292 kts 177°
2026-04-24 22:29 -1.70369 -48.49235 9432 ft 294 kts 176°
2026-04-24 22:29 -1.72424 -48.49194 9972 ft 297 kts 176°
2026-04-24 22:30 -1.74524 -48.49150 10271 ft 309 kts 176°
2026-04-24 22:30 -1.76725 -48.49104 10462 ft 324 kts 176°
2026-04-24 22:30 -1.79029 -48.49055 10647 ft 338 kts 176°
2026-04-24 22:30 -1.81394 -48.49006 10822 ft 351 kts 176°
2026-04-24 22:31 -1.83881 -48.48956 11012 ft 363 kts 177°
2026-04-24 22:31 -1.86433 -48.48907 11322 ft 370 kts 177°
2026-04-24 22:31 -1.89020 -48.48858 11739 ft 373 kts 177°
2026-04-24 22:31 -1.91624 -48.48809 12143 ft 376 kts 176°
2026-04-24 22:32 -1.94256 -48.48759 12555 ft 379 kts 176°
2026-04-24 22:32 -1.96904 -48.48708 12968 ft 382 kts 176°
2026-04-24 22:32 -1.99570 -48.48656 13399 ft 385 kts 176°
2026-04-24 22:32 -2.02217 -48.48604 13839 ft 386 kts 176°
2026-04-24 22:33 -2.04912 -48.48551 14231 ft 389 kts 176°
2026-04-24 22:33 -2.07624 -48.48497 14604 ft 391 kts 176°
2026-04-24 22:33 -2.10353 -48.48442 14987 ft 393 kts 176°
2026-04-24 22:33 -2.13098 -48.48388 15388 ft 395 kts 176°
2026-04-24 22:34 -2.15855 -48.48333 15780 ft 398 kts 176°
2026-04-24 22:34 -2.18569 -48.48280 16156 ft 400 kts 176°
2026-04-24 22:34 -2.21360 -48.48225 16542 ft 402 kts 176°
2026-04-24 22:34 -2.24166 -48.48170 16926 ft 404 kts 176°
2026-04-24 22:35 -2.26986 -48.48115 17291 ft 407 kts 176°
2026-04-24 22:35 -2.29823 -48.48059 17659 ft 409 kts 176°
2026-04-24 22:35 -2.32630 -48.48003 18021 ft 410 kts 176°
2026-04-24 22:35 -2.35495 -48.47946 18340 ft 413 kts 176°
2026-04-24 22:36 -2.38369 -48.47890 18627 ft 415 kts 176°
2026-04-24 22:36 -2.41264 -48.47832 18919 ft 416 kts 176°
2026-04-24 22:36 -2.44161 -48.47775 19202 ft 418 kts 176°
2026-04-24 22:36 -2.47076 -48.47717 19479 ft 419 kts 176°
2026-04-24 22:37 -2.50001 -48.47659 19742 ft 421 kts 176°
2026-04-24 22:37 -2.52933 -48.47600 20009 ft 422 kts 176°
2026-04-24 22:37 -2.55837 -48.47542 20263 ft 424 kts 176°
2026-04-24 22:37 -2.58789 -48.47483 20514 ft 426 kts 176°
2026-04-24 22:38 -2.61763 -48.47424 20767 ft 428 kts 176°
2026-04-24 22:38 -2.64744 -48.47366 21038 ft 429 kts 176°
2026-04-24 22:38 -2.67733 -48.47307 21297 ft 431 kts 176°
2026-04-24 22:38 -2.70739 -48.47247 21573 ft 432 kts 176°
2026-04-24 22:39 -2.73754 -48.47188 21855 ft 434 kts 176°
2026-04-24 22:39 -2.76777 -48.47128 22121 ft 436 kts 176°
2026-04-24 22:39 -2.79777 -48.47068 22393 ft 437 kts 176°
2026-04-24 22:39 -2.82823 -48.47008 22664 ft 439 kts 176°
2026-04-24 22:40 -2.85887 -48.46947 22939 ft 441 kts 176°
2026-04-24 22:40 -2.88959 -48.46886 23196 ft 443 kts 176°
2026-04-24 22:40 -2.92048 -48.46825 23450 ft 445 kts 176°
2026-04-24 22:40 -2.95146 -48.46764 23683 ft 446 kts 176°
2026-04-24 22:41 -2.98259 -48.46702 23904 ft 448 kts 176°
2026-04-24 22:41 -3.01379 -48.46640 24126 ft 449 kts 176°
2026-04-24 22:41 -3.04467 -48.46579 24349 ft 451 kts 176°
2026-04-24 22:41 -3.07608 -48.46517 24578 ft 452 kts 176°
2026-04-24 22:42 -3.10755 -48.46455 24819 ft 453 kts 176°
2026-04-24 22:42 -3.13918 -48.46392 25061 ft 455 kts 176°
2026-04-24 22:42 -3.17082 -48.46330 25307 ft 456 kts 176°
2026-04-24 22:42 -3.20265 -48.46267 25554 ft 458 kts 176°
2026-04-24 22:43 -3.23452 -48.46203 25797 ft 459 kts 176°
2026-04-24 22:43 -3.26654 -48.46140 26040 ft 461 kts 176°
2026-04-24 22:43 -3.29819 -48.46077 26272 ft 462 kts 176°
2026-04-24 22:43 -3.33043 -48.46013 26517 ft 464 kts 176°
2026-04-24 22:44 -3.36273 -48.45949 26756 ft 465 kts 176°
2026-04-24 22:44 -3.39516 -48.45885 26997 ft 467 kts 176°
2026-04-24 22:44 -3.42767 -48.45820 27223 ft 468 kts 176°
2026-04-24 22:44 -3.46031 -48.45756 27410 ft 471 kts 176°
2026-04-24 22:45 -3.49311 -48.45691 27656 ft 471 kts 176°
2026-04-24 22:45 -3.52584 -48.45626 27990 ft 470 kts 176°
2026-04-24 22:45 -3.55806 -48.45563 28302 ft 469 kts 176°
2026-04-24 22:45 -3.59063 -48.45499 28635 ft 468 kts 176°
2026-04-24 22:46 -3.62316 -48.45435 28945 ft 467 kts 176°
2026-04-24 22:46 -3.65560 -48.45371 29247 ft 466 kts 176°
2026-04-24 22:46 -3.68800 -48.45307 29548 ft 465 kts 176°
2026-04-24 22:46 -3.72034 -48.45243 29843 ft 464 kts 176°
2026-04-24 22:47 -3.75258 -48.45179 30161 ft 462 kts 176°
2026-04-24 22:47 -3.78474 -48.45115 30409 ft 462 kts 176°
2026-04-24 22:47 -3.81642 -48.45052 30621 ft 461 kts 176°
2026-04-24 22:47 -3.84847 -48.44988 30842 ft 461 kts 176°
2026-04-24 22:48 -3.88059 -48.44924 31050 ft 461 kts 176°
2026-04-24 22:48 -3.91264 -48.44860 31276 ft 460 kts 176°
2026-04-24 22:48 -3.94463 -48.44797 31493 ft 460 kts 176°
2026-04-24 22:48 -3.97658 -48.44733 31705 ft 459 kts 176°
2026-04-24 22:49 -4.00856 -48.44670 31908 ft 459 kts 176°
2026-04-24 22:49 -4.04053 -48.44606 32065 ft 460 kts 176°
2026-04-24 22:49 -4.07254 -48.44543 32270 ft 460 kts 176°
2026-04-24 22:49 -4.10406 -48.44481 32494 ft 459 kts 176°
2026-04-24 22:50 -4.13593 -48.44418 32709 ft 458 kts 177°
2026-04-24 22:50 -4.16777 -48.44355 32915 ft 457 kts 177°
2026-04-24 22:50 -4.19953 -48.44292 33105 ft 456 kts 177°
2026-04-24 22:50 -4.23127 -48.44229 33288 ft 456 kts 177°
2026-04-24 22:51 -4.26296 -48.44165 33466 ft 455 kts 177°
2026-04-24 22:51 -4.29464 -48.44102 33656 ft 455 kts 177°
2026-04-24 22:51 -4.32582 -48.44041 33837 ft 454 kts 177°
2026-04-24 22:51 -4.35739 -48.43978 34011 ft 453 kts 177°
2026-04-24 22:52 -4.38893 -48.43915 34140 ft 453 kts 177°
2026-04-24 22:52 -4.42048 -48.43852 34265 ft 453 kts 177°
2026-04-24 22:52 -4.45203 -48.43789 34388 ft 453 kts 177°
2026-04-24 22:52 -4.48357 -48.43727 34506 ft 453 kts 177°
2026-04-24 22:53 -4.51509 -48.43650 34612 ft 453 kts 176°
2026-04-24 22:53 -4.54660 -48.43552 34737 ft 453 kts 176°
2026-04-24 22:53 -4.57763 -48.43444 34871 ft 452 kts 176°
2026-04-24 22:53 -4.60906 -48.43332 34999 ft 452 kts 176°
2026-04-24 22:54 -4.67194 -48.43108 35157 ft 453 kts 176°
2026-04-24 22:54 -4.73506 -48.42890 35307 ft 455 kts 176°
2026-04-24 22:55 -4.79838 -48.42674 35450 ft 456 kts 176°
2026-04-24 22:55 -4.86147 -48.42459 35578 ft 457 kts 176°
2026-04-24 22:56 -4.92519 -48.42241 35712 ft 459 kts 176°
2026-04-24 22:56 -4.98902 -48.42023 35856 ft 460 kts 176°
2026-04-24 22:57 -5.05304 -48.41805 35976 ft 461 kts 176°
2026-04-24 22:57 -5.11672 -48.41587 36098 ft 462 kts 176°
2026-04-24 22:58 -5.18117 -48.41366 36137 ft 465 kts 176°
2026-04-24 22:58 -5.24582 -48.41145 36272 ft 465 kts 176°
2026-04-24 22:59 -5.31017 -48.40925 36390 ft 466 kts 176°
2026-04-24 22:59 -5.37507 -48.40703 36493 ft 467 kts 176°
2026-04-24 23:00 -5.40754 -48.40592 36550 ft 468 kts 176°
2026-04-24 23:00 -5.47253 -48.40370 36711 ft 467 kts 177°
2026-04-24 23:01 -5.53761 -48.40147 36789 ft 468 kts 177°
2026-04-24 23:01 -5.60285 -48.39924 36882 ft 469 kts 177°
2026-04-24 23:02 -5.66812 -48.39700 36954 ft 471 kts 177°
2026-04-24 23:02 -5.73371 -48.39476 36960 ft 471 kts 176°
2026-04-24 23:03 -5.79918 -48.39252 36965 ft 471 kts 176°
2026-04-24 23:03 -5.86427 -48.39029 36958 ft 471 kts 176°
2026-04-24 23:04 -5.92980 -48.38804 36960 ft 471 kts 176°
2026-04-24 23:04 -5.99530 -48.38579 36957 ft 471 kts 176°
2026-04-24 23:05 -6.06077 -48.38354 36960 ft 471 kts 176°
2026-04-24 23:05 -6.12627 -48.38130 36953 ft 471 kts 176°
2026-04-24 23:06 -6.19133 -48.37907 36959 ft 471 kts 176°
2026-04-24 23:06 -6.25679 -48.37682 36957 ft 471 kts 176°
2026-04-24 23:07 -6.32228 -48.37457 36961 ft 471 kts 176°
2026-04-24 23:07 -6.38779 -48.37232 36957 ft 471 kts 176°
2026-04-24 23:08 -6.45323 -48.37008 36951 ft 471 kts 176°
2026-04-24 23:08 -6.51881 -48.36783 36957 ft 471 kts 176°
2026-04-24 23:09 -6.58434 -48.36557 36956 ft 471 kts 176°
2026-04-24 23:09 -6.64954 -48.36333 36953 ft 472 kts 176°
2026-04-24 23:10 -6.71523 -48.36107 36957 ft 472 kts 176°
2026-04-24 23:10 -6.78091 -48.35882 36963 ft 472 kts 176°
2026-04-24 23:11 -6.84661 -48.35656 36961 ft 473 kts 176°
2026-04-24 23:11 -6.91245 -48.35429 36960 ft 474 kts 176°
2026-04-24 23:12 -6.97838 -48.35202 36960 ft 474 kts 176°
2026-04-24 23:12 -7.04393 -48.34977 36966 ft 474 kts 176°
2026-04-24 23:13 -7.10985 -48.34749 36960 ft 474 kts 176°
2026-04-24 23:13 -7.17589 -48.34522 36964 ft 475 kts 176°
2026-04-24 23:14 -7.24198 -48.34294 36966 ft 475 kts 176°
2026-04-24 23:14 -7.30759 -48.34068 36963 ft 475 kts 176°
2026-04-24 23:15 -7.37370 -48.33840 36967 ft 475 kts 176°
2026-04-24 23:15 -7.43980 -48.33612 36966 ft 476 kts 176°
2026-04-24 23:16 -7.50606 -48.33384 36969 ft 477 kts 176°
2026-04-24 23:16 -7.57189 -48.33157 36960 ft 477 kts 176°
2026-04-24 23:17 -7.63818 -48.32928 36962 ft 476 kts 176°
2026-04-24 23:17 -7.70441 -48.32699 36965 ft 476 kts 176°
2026-04-24 23:18 -7.77055 -48.32471 36959 ft 475 kts 176°
2026-04-24 23:18 -7.83671 -48.32242 36966 ft 475 kts 176°
2026-04-24 23:19 -7.90233 -48.32016 36971 ft 475 kts 176°
2026-04-24 23:19 -7.96847 -48.31787 36963 ft 476 kts 176°
2026-04-24 23:20 -8.03469 -48.31558 36964 ft 476 kts 176°
2026-04-24 23:20 -8.10052 -48.31330 36969 ft 476 kts 176°
2026-04-24 23:21 -8.16676 -48.31101 36967 ft 476 kts 176°
2026-04-24 23:21 -8.23302 -48.30871 36969 ft 476 kts 177°
2026-04-24 23:22 -8.29946 -48.30641 36964 ft 479 kts 177°
2026-04-24 23:22 -8.36617 -48.30410 36964 ft 480 kts 177°
2026-04-24 23:23 -8.43243 -48.30181 36965 ft 479 kts 177°
2026-04-24 23:23 -8.49910 -48.29950 36966 ft 479 kts 177°
2026-04-24 23:24 -8.56578 -48.29718 36964 ft 480 kts 177°
2026-04-24 23:24 -8.63270 -48.29486 36966 ft 481 kts 177°
2026-04-24 23:25 -8.69956 -48.29254 36971 ft 481 kts 177°
2026-04-24 23:25 -8.76597 -48.29024 36964 ft 481 kts 177°
2026-04-24 23:26 -8.83279 -48.28792 36969 ft 481 kts 177°
2026-04-24 23:26 -8.89965 -48.28559 36965 ft 480 kts 177°
2026-04-24 23:27 -8.96644 -48.28327 36964 ft 480 kts 177°
2026-04-24 23:27 -9.03283 -48.28096 36967 ft 480 kts 177°
2026-04-24 23:28 -9.09961 -48.27864 36968 ft 481 kts 176°
2026-04-24 23:28 -9.16664 -48.27631 36972 ft 482 kts 176°
2026-04-24 23:29 -9.23363 -48.27398 36974 ft 482 kts 176°
2026-04-24 23:29 -9.30064 -48.27164 36970 ft 482 kts 176°
2026-04-24 23:30 -9.36722 -48.26932 36968 ft 482 kts 176°
2026-04-24 23:30 -9.43435 -48.26698 36969 ft 483 kts 176°
2026-04-24 23:31 -9.50153 -48.26464 36971 ft 483 kts 176°
2026-04-24 23:31 -9.56870 -48.26230 36969 ft 483 kts 176°
2026-04-24 23:32 -9.63541 -48.25997 36977 ft 483 kts 177°
2026-04-24 23:32 -9.70273 -48.25762 36971 ft 484 kts 177°
2026-04-24 23:33 -9.77009 -48.25528 36976 ft 484 kts 177°
2026-04-24 23:33 -9.83744 -48.25292 36974 ft 484 kts 177°
2026-04-24 23:34 -9.90479 -48.25057 36970 ft 484 kts 177°
2026-04-24 23:34 -9.97163 -48.24823 36979 ft 484 kts 177°
2026-04-24 23:35 -10.03891 -48.24588 36981 ft 484 kts 177°
2026-04-24 23:35 -10.10629 -48.24352 36983 ft 484 kts 177°
2026-04-24 23:36 -10.17362 -48.24117 36987 ft 484 kts 177°
2026-04-24 23:36 -10.24028 -48.23883 36990 ft 482 kts 177°
2026-04-24 23:37 -10.30737 -48.23648 36990 ft 482 kts 177°
2026-04-24 23:37 -10.40841 -48.23294 36989 ft 482 kts 177°
2026-04-24 23:38 -10.47540 -48.23059 36984 ft 481 kts 177°
2026-04-24 23:38 -10.54186 -48.22826 36977 ft 481 kts 177°
2026-04-24 23:39 -10.60872 -48.22592 36971 ft 481 kts 177°
2026-04-24 23:39 -10.67562 -48.22356 36978 ft 481 kts 177°
2026-04-24 23:40 -10.74242 -48.22121 36974 ft 479 kts 177°
2026-04-24 23:40 -10.80896 -48.21888 36968 ft 478 kts 177°
2026-04-24 23:41 -10.87507 -48.21656 36971 ft 478 kts 177°
2026-04-24 23:41 -10.94160 -48.21422 36969 ft 478 kts 177°
2026-04-24 23:42 -11.00811 -48.21188 36968 ft 478 kts 177°
2026-04-24 23:42 -11.07453 -48.20954 36966 ft 478 kts 177°
2026-04-24 23:43 -11.14054 -48.20721 36963 ft 478 kts 177°
2026-04-24 23:43 -11.20691 -48.20487 36963 ft 478 kts 177°
2026-04-24 23:44 -11.27340 -48.20253 36962 ft 477 kts 177°
2026-04-24 23:44 -11.33966 -48.20019 36963 ft 476 kts 177°
2026-04-24 23:45 -11.40584 -48.19786 36963 ft 476 kts 177°
2026-04-24 23:45 -11.47153 -48.19554 36961 ft 476 kts 177°
2026-04-24 23:46 -11.53770 -48.19320 36961 ft 476 kts 177°
2026-04-24 23:46 -11.60384 -48.19086 36958 ft 476 kts 177°
2026-04-24 23:47 -11.67000 -48.18853 36961 ft 476 kts 177°
2026-04-24 23:47 -11.73568 -48.18620 36961 ft 475 kts 177°
2026-04-24 23:48 -11.80170 -48.18387 36960 ft 475 kts 177°
2026-04-24 23:48 -11.86779 -48.18153 36960 ft 474 kts 177°
2026-04-24 23:49 -11.93370 -48.17919 36963 ft 474 kts 177°
2026-04-24 23:49 -11.99973 -48.17685 36963 ft 474 kts 177°
2026-04-24 23:50 -12.06559 -48.17451 36961 ft 474 kts 177°
2026-04-24 23:50 -12.13105 -48.17219 36963 ft 473 kts 177°
2026-04-24 23:51 -12.19690 -48.16986 36963 ft 473 kts 177°
2026-04-24 23:51 -12.26267 -48.16752 36964 ft 473 kts 177°
2026-04-24 23:52 -12.32842 -48.16518 36963 ft 473 kts 177°
2026-04-24 23:52 -12.39416 -48.16285 36964 ft 473 kts 177°
2026-04-24 23:53 -12.45942 -48.16053 36964 ft 472 kts 177°
2026-04-24 23:53 -12.52509 -48.15819 36964 ft 472 kts 177°
2026-04-24 23:54 -12.59079 -48.15585 36962 ft 472 kts 177°
2026-04-24 23:54 -12.65648 -48.15351 36966 ft 472 kts 176°
2026-04-24 23:55 -12.72168 -48.15118 36966 ft 472 kts 176°
2026-04-24 23:55 -12.78730 -48.14885 36971 ft 472 kts 176°
2026-04-24 23:56 -12.85297 -48.14651 36972 ft 472 kts 176°
2026-04-24 23:56 -12.91850 -48.14417 36977 ft 471 kts 176°
2026-04-24 23:57 -12.98405 -48.14182 36975 ft 471 kts 176°
2026-04-24 23:57 -13.04947 -48.13948 36976 ft 471 kts 176°
2026-04-24 23:58 -13.11446 -48.13716 36981 ft 471 kts 176°
2026-04-24 23:58 -13.17991 -48.13482 36981 ft 470 kts 175°
2026-04-24 23:59 -13.24522 -48.13249 36979 ft 469 kts 175°
2026-04-24 23:59 -13.31051 -48.13019 36988 ft 470 kts 175°
2026-04-25 00:00 -13.37543 -48.12784 36991 ft 469 kts 175°
2026-04-25 00:00 -13.44068 -48.12549 36993 ft 469 kts 175°
2026-04-25 00:01 -13.50596 -48.12314 36991 ft 469 kts 175°
2026-04-25 00:01 -13.57118 -48.12081 36990 ft 469 kts 175°
2026-04-25 00:02 -13.63641 -48.11846 36989 ft 469 kts 175°
2026-04-25 00:02 -13.70116 -48.11613 36990 ft 469 kts 175°
2026-04-25 00:03 -13.76625 -48.11379 36991 ft 468 kts 175°
2026-04-25 00:03 -13.83126 -48.11146 36992 ft 467 kts 175°
2026-04-25 00:04 -13.89624 -48.10911 36993 ft 467 kts 175°
2026-04-25 00:04 -13.96082 -48.10678 36994 ft 467 kts 175°
2026-04-25 00:05 -14.02576 -48.10445 36996 ft 467 kts 175°
2026-04-25 00:05 -14.09067 -48.10212 36997 ft 467 kts 175°
2026-04-25 00:06 -14.15559 -48.09977 37001 ft 467 kts 175°
2026-04-25 00:06 -14.22046 -48.09743 37003 ft 467 kts 175°
2026-04-25 00:07 -14.28495 -48.09510 37006 ft 467 kts 175°
2026-04-25 00:07 -14.34983 -48.09276 37006 ft 466 kts 175°
2026-04-25 00:08 -14.41469 -48.09042 37019 ft 467 kts 175°
2026-04-25 00:08 -14.47956 -48.08807 37016 ft 466 kts 175°
2026-04-25 00:09 -14.54401 -48.08574 37021 ft 466 kts 175°
2026-04-25 00:09 -14.60879 -48.08339 37032 ft 466 kts 175°
2026-04-25 00:10 -14.67359 -48.08104 37034 ft 466 kts 175°
2026-04-25 00:10 -14.73838 -48.07870 37033 ft 466 kts 175°
2026-04-25 00:11 -14.79228 -48.07674 37038 ft 466 kts 175°
2026-04-25 00:11 -14.86810 -48.07399 37041 ft 466 kts 175°
2026-04-25 00:12 -14.93295 -48.07163 37042 ft 466 kts 175°
2026-04-25 00:12 -14.99777 -48.06927 37034 ft 466 kts 175°
2026-04-25 00:13 -15.06219 -48.06694 37040 ft 467 kts 175°
2026-04-25 00:13 -15.12709 -48.06458 37037 ft 467 kts 175°
2026-04-25 00:14 -15.19208 -48.06221 37036 ft 467 kts 175°
2026-04-25 00:14 -15.25701 -48.06215 37036 ft 468 kts 184°
2026-04-25 00:15 -15.32134 -48.07020 37045 ft 470 kts 186°
2026-04-25 00:15 -15.38604 -48.07996 37045 ft 470 kts 186°
2026-04-25 00:16 -15.45079 -48.09004 37050 ft 470 kts 186°
2026-04-25 00:16 -15.51550 -48.10000 37051 ft 470 kts 186°
2026-04-25 00:17 -15.58015 -48.10984 37062 ft 469 kts 186°
2026-04-25 00:17 -15.64427 -48.11958 37084 ft 469 kts 186°
2026-04-25 00:18 -15.70886 -48.12939 37096 ft 469 kts 186°
2026-04-25 00:18 -15.77339 -48.13921 37108 ft 469 kts 186°
2026-04-25 00:19 -15.83748 -48.14896 37109 ft 468 kts 186°
2026-04-25 00:19 -15.90191 -48.15878 37106 ft 468 kts 186°
2026-04-25 00:20 -15.96627 -48.16859 37096 ft 467 kts 186°
2026-04-25 00:20 -16.03065 -48.17841 37084 ft 467 kts 186°
2026-04-25 00:21 -16.09460 -48.18816 37064 ft 467 kts 187°
2026-04-25 00:21 -16.15881 -48.19797 37059 ft 466 kts 187°
2026-04-25 00:22 -16.22302 -48.20779 37057 ft 466 kts 187°
2026-04-25 00:22 -16.27629 -48.21593 37057 ft 466 kts 187°
2026-04-25 00:23 -16.35084 -48.22734 37053 ft 466 kts 187°
2026-04-25 00:23 -16.41486 -48.23714 37058 ft 464 kts 187°
2026-04-25 00:24 -16.47877 -48.24694 37058 ft 464 kts 187°
2026-04-25 00:24 -16.54263 -48.25673 37055 ft 464 kts 187°
2026-04-25 00:25 -16.59573 -48.26487 37057 ft 464 kts 187°
2026-04-25 00:25 -16.66991 -48.27626 37054 ft 463 kts 187°
2026-04-25 00:26 -16.72284 -48.28440 37052 ft 462 kts 187°
2026-04-25 00:26 -16.78638 -48.29416 37053 ft 462 kts 187°
2026-04-25 00:27 -16.84991 -48.30394 37056 ft 462 kts 187°
2026-04-25 00:27 -16.92375 -48.31530 37058 ft 462 kts 187°
2026-04-25 00:28 -16.97699 -48.32350 37052 ft 461 kts 187°
2026-04-25 00:28 -17.04005 -48.33322 37052 ft 461 kts 187°
2026-04-25 00:29 -17.10359 -48.34302 37052 ft 461 kts 187°
2026-04-25 00:29 -17.16712 -48.35283 37051 ft 461 kts 187°
2026-04-25 00:30 -17.23059 -48.36263 37052 ft 461 kts 187°
2026-04-25 00:30 -17.29352 -48.37236 37053 ft 460 kts 187°
2026-04-25 00:31 -17.35693 -48.38217 37051 ft 460 kts 187°
2026-04-25 00:31 -17.42029 -48.39198 37052 ft 460 kts 187°
2026-04-25 00:32 -17.48366 -48.40180 37049 ft 460 kts 187°
2026-04-25 00:32 -17.54647 -48.41153 37048 ft 459 kts 187°
2026-04-25 00:33 -17.60962 -48.42132 37050 ft 459 kts 187°
2026-04-25 00:33 -17.67280 -48.43113 37049 ft 459 kts 187°
2026-04-25 00:34 -17.73596 -48.44093 37046 ft 458 kts 188°
2026-04-25 00:34 -17.79845 -48.45065 37048 ft 456 kts 188°
2026-04-25 00:35 -17.86130 -48.46042 37046 ft 456 kts 188°
2026-04-25 00:35 -17.92411 -48.47020 37049 ft 456 kts 188°
2026-04-25 00:36 -17.98690 -48.47998 37047 ft 456 kts 188°
2026-04-25 00:36 -18.04925 -48.48970 37042 ft 455 kts 188°
2026-04-25 00:37 -18.11190 -48.49948 37042 ft 455 kts 188°
2026-04-25 00:37 -18.17457 -48.50926 37046 ft 455 kts 188°
2026-04-25 00:38 -18.23731 -48.51906 37042 ft 455 kts 188°
2026-04-25 00:38 -18.29994 -48.52885 37048 ft 455 kts 188°
2026-04-25 00:39 -18.36218 -48.53859 37053 ft 455 kts 188°
2026-04-25 00:39 -18.42486 -48.54841 37053 ft 455 kts 188°
2026-04-25 00:40 -18.48754 -48.55823 37053 ft 455 kts 188°
2026-04-25 00:40 -18.55014 -48.56804 37053 ft 455 kts 188°
2026-04-25 00:41 -18.61280 -48.57787 37055 ft 455 kts 188°
2026-04-25 00:41 -18.67541 -48.58771 37056 ft 455 kts 188°
2026-04-25 00:42 -18.73804 -48.59755 37056 ft 455 kts 188°
2026-04-25 00:42 -18.80063 -48.60739 37057 ft 455 kts 189°
2026-04-25 00:43 -18.86278 -48.61717 37056 ft 454 kts 189°
2026-04-25 00:43 -18.92529 -48.62702 37056 ft 454 kts 189°
2026-04-25 00:44 -18.98778 -48.63687 37059 ft 454 kts 189°
2026-04-25 00:44 -19.05032 -48.64673 37059 ft 454 kts 189°
2026-04-25 00:45 -19.11237 -48.65653 37054 ft 453 kts 189°
2026-04-25 00:45 -19.17504 -48.65891 37052 ft 454 kts 169°
2026-04-25 00:46 -19.23484 -48.63733 37056 ft 456 kts 159°
2026-04-25 00:47 -19.32297 -48.59891 37056 ft 457 kts 159°
2026-04-25 00:47 -19.38135 -48.57333 37053 ft 457 kts 159°
2026-04-25 00:48 -19.44016 -48.54754 37058 ft 457 kts 159°
2026-04-25 00:48 -19.49896 -48.52175 37055 ft 457 kts 159°
2026-04-25 00:49 -19.55775 -48.49594 37054 ft 457 kts 159°
2026-04-25 00:49 -19.61614 -48.47028 37057 ft 457 kts 159°
2026-04-25 00:50 -19.67492 -48.44444 37054 ft 457 kts 159°
2026-04-25 00:50 -19.73368 -48.41858 37053 ft 457 kts 159°
2026-04-25 00:51 -19.79239 -48.39271 37052 ft 457 kts 159°
2026-04-25 00:51 -19.85070 -48.36701 37047 ft 457 kts 159°
2026-04-25 00:52 -19.90944 -48.34110 37047 ft 457 kts 159°
2026-04-25 00:52 -19.96821 -48.31516 37038 ft 457 kts 159°
2026-04-25 00:53 -20.02695 -48.28920 37038 ft 458 kts 160°
2026-04-25 00:53 -20.08540 -48.26336 37040 ft 458 kts 160°
2026-04-25 00:54 -20.14430 -48.23729 37036 ft 458 kts 160°
2026-04-25 00:54 -20.20317 -48.21121 37039 ft 458 kts 160°
2026-04-25 00:55 -20.26195 -48.18528 36555 ft 455 kts 162°
2026-04-25 00:55 -20.29247 -48.17748 35682 ft 451 kts 179°
2026-04-25 00:55 -20.32360 -48.17891 34759 ft 449 kts 191°
2026-04-25 00:55 -20.35397 -48.18532 33869 ft 451 kts 194°
2026-04-25 00:56 -20.38461 -48.19292 32878 ft 454 kts 195°
2026-04-25 00:56 -20.41552 -48.20083 31701 ft 461 kts 195°
2026-04-25 00:56 -20.44691 -48.20898 30533 ft 468 kts 195°
2026-04-25 00:56 -20.47876 -48.21726 29274 ft 474 kts 195°
2026-04-25 00:57 -20.51094 -48.22562 27997 ft 478 kts 195°
2026-04-25 00:57 -20.54333 -48.23401 26779 ft 482 kts 195°
2026-04-25 00:57 -20.57600 -48.24249 25612 ft 484 kts 195°
2026-04-25 00:57 -20.60878 -48.25103 24486 ft 485 kts 195°
2026-04-25 00:58 -20.64110 -48.25946 23384 ft 485 kts 195°
2026-04-25 00:58 -20.67387 -48.26808 22119 ft 485 kts 195°
2026-04-25 00:58 -20.70652 -48.27678 20909 ft 483 kts 195°
2026-04-25 00:58 -20.73894 -48.28550 20128 ft 474 kts 195°
2026-04-25 00:59 -20.77063 -48.29401 19278 ft 466 kts 195°
2026-04-25 00:59 -20.80180 -48.30244 18427 ft 458 kts 195°
2026-04-25 00:59 -20.83271 -48.30974 17438 ft 453 kts 188°
2026-04-25 00:59 -20.86396 -48.31006 16531 ft 447 kts 175°
2026-04-25 01:00 -20.89439 -48.30496 15655 ft 440 kts 167°
2026-04-25 01:00 -20.92317 -48.29479 14749 ft 434 kts 156°
2026-04-25 01:00 -20.94845 -48.27820 13760 ft 433 kts 141°
2026-04-25 01:00 -20.96900 -48.25485 12662 ft 430 kts 128°
2026-04-25 01:01 -20.98592 -48.22914 12216 ft 412 kts 125°
2026-04-25 01:01 -21.00157 -48.20420 11562 ft 399 kts 124°
2026-04-25 01:01 -21.01691 -48.17957 10761 ft 394 kts 124°
2026-04-25 01:01 -21.03184 -48.15560 10286 ft 379 kts 124°
2026-04-25 01:02 -21.04606 -48.13275 10090 ft 358 kts 124°
2026-04-25 01:02 -21.05924 -48.11157 9980 ft 335 kts 124°
2026-04-25 01:02 -21.07177 -48.09144 9868 ft 314 kts 124°
2026-04-25 01:02 -21.08354 -48.07251 9668 ft 298 kts 124°
2026-04-25 01:03 -21.09469 -48.05460 9495 ft 278 kts 124°
2026-04-25 01:03 -21.10509 -48.03788 9216 ft 263 kts 124°
2026-04-25 01:03 -21.11509 -48.02180 8742 ft 257 kts 124°
2026-04-25 01:03 -21.12496 -48.00595 8198 ft 255 kts 123°
2026-04-25 01:04 -21.13473 -47.99026 7690 ft 252 kts 123°
2026-04-25 01:04 -21.14426 -47.97495 7186 ft 249 kts 123°
2026-04-25 01:04 -21.15381 -47.95960 6701 ft 246 kts 123°
2026-04-25 01:04 -21.16325 -47.94444 6188 ft 244 kts 122°
2026-04-25 01:05 -21.17263 -47.92935 5672 ft 242 kts 122°
2026-04-25 01:05 -21.18187 -47.91444 5155 ft 239 kts 121°
2026-04-25 01:05 -21.18885 -47.89839 4641 ft 236 kts 108°
2026-04-25 01:05 -21.19347 -47.88164 4168 ft 232 kts 104°
2026-04-25 01:06 -21.19731 -47.86516 3828 ft 223 kts 103°
2026-04-25 01:06 -21.20082 -47.84920 3633 ft 219 kts 103°
2026-04-25 01:06 -21.20420 -47.83342 3472 ft 220 kts 102°
2026-04-25 01:06 -21.20757 -47.81749 3335 ft 219 kts 102°
2026-04-25 01:07 -21.21086 -47.80181 3284 ft 209 kts 102°
2026-04-25 01:07 -21.21384 -47.78758 3311 ft 180 kts 102°
2026-04-25 01:07 -21.21621 -47.77551 3327 ft 153 kts 97°
2026-04-25 01:07 -21.21630 -47.76441 3332 ft 148 kts 77°
2026-04-25 01:08 -21.21083 -47.75530 3242 ft 150 kts 35°
2026-04-25 01:08 -21.20086 -47.75278 3078 ft 152 kts 354°
2026-04-25 01:08 -21.19057 -47.75528 2769 ft 158 kts 345°
2026-04-25 01:08 -21.18023 -47.75873 2556 ft 153 kts 343°
2026-04-25 01:09 -21.17027 -47.76269 2385 ft 153 kts 343°
2026-04-25 01:09 -21.16018 -47.76604 2204 ft 151 kts 348°
2026-04-25 01:09 -21.14998 -47.76915 1990 ft 152 kts 348°
2026-04-25 01:09 -21.14009 -47.77228 1827 ft 140 kts 347°
2026-04-25 01:10 -21.13230 -47.77465 1813 ft 78 kts 342°
2026-04-25 01:10 -21.12992 -47.77545 1814 ft 6 kts 345°
2026-04-25 01:10 -21.12874 -47.77581 1813 ft 24 kts 344°
2026-04-25 01:10 -21.12717 -47.77628 1813 ft 23 kts 345°
2026-04-25 01:11 -21.12564 -47.77685 1807 ft 22 kts 330°
2026-04-25 01:11 -21.12576 -47.77770 1809 ft 11 kts 216°
2026-04-25 01:11 -21.12634 -47.77814 1807 ft 9 kts 208°
2026-04-25 01:11 -21.12705 -47.77812 1807 ft 14 kts 164°
2026-04-25 01:12 -21.12800 -47.77781 1806 ft 15 kts 163°
2026-04-25 01:12 -21.12892 -47.77751 1811 ft 13 kts 163°
2026-04-25 01:12 -21.12975 -47.77724 1812 ft 13 kts 163°
2026-04-25 01:12 -21.13057 -47.77697 1812 ft 11 kts 163°
2026-04-25 01:13 -21.13129 -47.77674 1813 ft 12 kts 163°
2026-04-25 01:13 -21.13209 -47.77648 1813 ft 11 kts 163°
2026-04-25 01:13 -21.13298 -47.77619 1814 ft 16 kts 162°
2026-04-25 01:13 -21.13397 -47.77587 1814 ft 14 kts 163°
2026-04-25 01:14 -21.13485 -47.77560 1814 ft 12 kts 163°
2026-04-25 01:14 -21.13563 -47.77536 1815 ft 11 kts 163°
2026-04-25 01:14 -21.13648 -47.77509 1815 ft 18 kts 163°
2026-04-25 01:14 -21.13760 -47.77473 1816 ft 16 kts 163°
2026-04-25 01:15 -21.13849 -47.77481 1817 ft 11 kts 230°
2026-04-25 01:15 -21.13872 -47.77550 1817 ft 6 kts 281°
2026-04-25 01:15 -21.13864 -47.77555 1817 ft 0 kts 355°
2026-04-25 01:15 -21.13846 -47.77551 1816 ft 7 kts 15°
2026-04-25 01:16 -21.13843 -47.77549 1816 ft 1 kts 42°
2026-04-25 01:16 -21.13840 -47.77537 1816 ft 0 kts 95°
2026-04-25 01:16 -21.13842 -47.77535 1816 ft 2 kts 114°
2026-04-25 01:16 -21.13843 -47.77532 1816 ft 0 kts 111°